Location: Altleiningen
(49.5078°N, 8.0741°E)
Time: 03:44:37
(UTC+00:00)

ERS-2 - Pass Details

Date: 03 March 2021
Orbit: 492 x 496 km, 98.6° (Epoch: 16 April)

Event Time Altitude Azimuth Distance (km) Brightness Sun altitude
Rises 18:22:01 0° 16° (NNE) 2,596 5.6 -11.8°
Reaches altitude 10° 18:24:06 10° 18° (NNE) 1,708 4.7 -12.2°
Maximum altitude 18:27:46 77° 103° (ESE) 516 2.0 -12.8°
Drops below altitude 10° 18:31:25 10° 191° (S) 1,694 4.9 -13.4°
Sets 18:33:29 0° 193° (SSW) 2,573 5.8 -13.7°
